QPF
0.00 0.00 0.00 0.00 0.00 0.00 0.00 0.00 0.00 0.00 0.00 0.00 0.00 0.00 0.00 0.00 0.00 0.00 0.00 0.00 0.00 0.00 0.00 0.00 0.00 0.00 0.00 0.00 0.00 0.00 0.00 0.01 0.01 0.01 0.01 0.00 0.00 0.00 0.00 0.00 0.00 0.00 0.00 0.00
0.01 0.00 0.00 0.00 0.00 0.00 0.00 0.00 0.00 0.00 0.00 0.00 0.00 0.00 0.00 0.00 0.00 0.00 0.00 0.00 0.00 0.00 0.00 0.00 0.00 0.00 0.00 0.00 0.00 0.00 0.00 0.01 0.01 0.00 0.00 0.00 0.00 0.00 0.00 0.00 0.00 0.00 0.00 0.00
0.01 0.00 0.00 0.00 0.00 0.00 0.00 0.00 0.00 0.00 0.00 0.00 0.00 0.00 0.00 0.00 0.00 0.00 0.00 0.00 0.00 0.00 0.00 0.00 0.00 0.00 0.00 0.00 0.00 0.00 0.00 0.00 0.01 0.01 0.00 0.00 0.00 0.00 0.00 0.00 0.00 0.00 0.00 0.00
0.01 0.00 0.00 0.00 0.00 0.00 0.00 0.00 0.00 0.00 0.00 0.00 0.00 0.00 0.00 0.00 0.00 0.00 0.00 0.00 0.00 0.00 0.00 0.00 0.00 0.00 0.00 0.00 0.00 0.00 0.00 0.01 0.01 0.01 0.00 0.00 0.00 0.00 0.00 0.00 0.00 0.00 0.00 0.00
0.01 0.00 0.00 0.00 0.00 0.00 0.00 0.00 0.00 0.00 0.00 0.00 0.00 0.00 0.00 0.00 0.00 0.00 0.00 0.00 0.00 0.00 0.00 0.00 0.00 0.00 0.00 0.00 0.00 0.01 0.01 0.01 0.01 0.01 0.00 0.00 0.00 0.00 0.00 0.00 0.00 0.00 0.00 0.00
0.01 0.01 0.00 0.00 0.00 0.00 0.00 0.00 0.00 0.00 0.00 0.00 0.00 0.00 0.00 0.00 0.00 0.00 0.00 0.00 0.00 0.00 0.00 0.00 0.00 0.00 0.00 0.00 0.00 0.01 0.01 0.01 0.01 0.01 0.00 0.00 0.00 0.00 0.00 0.00 0.00 0.00 0.00 0.00
0.01 0.01 0.01 0.01 0.01 0.01 0.01 0.01 0.01 0.01 0.01 0.00 0.00 0.00 0.00 0.00 0.00 0.00 0.00 0.00 0.00 0.00 0.00 0.00 0.00 0.00 0.00 0.00 0.00 0.02 0.03 0.01 0.01 0.01 0.01 0.00 0.00 0.00 0.00 0.00 0.00 0.00 0.00 0.00
0.02 0.01 0.01 0.01 0.01 0.01 0.01 0.01 0.01 0.01 0.00 0.00 0.00 0.00 0.00 0.00 0.00 0.00 0.00 0.00 0.00 0.00 0.00 0.00 0.00 0.00 0.00 0.00 0.01 0.03 0.04 0.03 0.01 0.01 0.01 0.00 0.00 0.00 0.00 0.00 0.00 0.00 0.00 0.00
0.04 0.02 0.01 0.00 0.00 0.00 0.01 0.01 0.01 0.01 0.01 0.00 0.00 0.00 0.00 0.00 0.00 0.00 0.00 0.00 0.00 0.00 0.00 0.00 0.00 0.00 0.00 0.00 0.01 0.03 0.04 0.05 0.02 0.01 0.01 0.00 0.00 0.00 0.00 0.00 0.00 0.00 0.00 0.00
0.05 0.04 0.01 0.00 0.01 0.01 0.01 0.01 0.01 0.02 0.01 0.00 0.00 0.00 0.00 0.00 0.00 0.00 0.00 0.00 0.00 0.00 0.00 0.00 0.00 0.00 0.00 0.00 0.00 0.03 0.04 0.05 0.04 0.02 0.02 0.00 0.00 0.00 0.00 0.00 0.00 0.00 0.00 0.00
0.05 0.06 0.04 0.02 0.02 0.01 0.01 0.02 0.01 0.01 0.01 0.00 0.00 0.00 0.00 0.00 0.00 0.00 0.00 0.00 0.00 0.00 0.00 0.00 0.00 0.00 0.00 0.00 0.00 0.03 0.04 0.04 0.05 0.03 0.02 0.01 0.00 0.00 0.00 0.00 0.00 0.00 0.00 0.00
0.04 0.07 0.06 0.03 0.02 0.01 0.01 0.01 0.01 0.02 0.01 0.00 0.00 0.00 0.00 0.00 0.00 0.00 0.00 0.00 0.00 0.00 0.00 0.00 0.00 0.00 0.00 0.00 0.00 0.02 0.04 0.03 0.03 0.04 0.02 0.00 0.00 0.00 0.00 0.00 0.00 0.00 0.00 0.00
0.05 0.07 0.07 0.06 0.04 0.03 0.03 0.01 0.01 0.01 0.01 0.01 0.00 0.00 0.00 0.00 0.00 0.00 0.00 0.00 0.00 0.00 0.00 0.00 0.00 0.00 0.00 0.00 0.00 0.02 0.04 0.02 0.02 0.03 0.01 0.00 0.00 0.00 0.00 0.00 0.00 0.00 0.00 0.00
0.07 0.06 0.05 0.06 0.05 0.03 0.02 0.01 0.01 0.02 0.02 0.01 0.01 0.01 0.00 0.00 0.00 0.00 0.00 0.00 0.00 0.00 0.00 0.00 0.00 0.00 0.00 0.00 0.00 0.01 0.04 0.02 0.02 0.02 0.01 0.00 0.00 0.00 0.00 0.00 0.00 0.00 0.00 0.00
0.08 0.05 0.02 0.01 0.02 0.02 0.01 0.01 0.01 0.02 0.01 0.01 0.01 0.01 0.00 0.00 0.00 0.00 0.00 0.00 0.00 0.00 0.00 0.00 0.00 0.00 0.00 0.00 0.00 0.01 0.03 0.02 0.02 0.02 0.01 0.00 0.00 0.00 0.00 0.00 0.00 0.00 0.00 0.00
0.06 0.05 0.02 0.01 0.01 0.01 0.01 0.01 0.01 0.02 0.01 0.01 0.01 0.01 0.01 0.00 0.00 0.00 0.00 0.00 0.00 0.00 0.00 0.00 0.00 0.00 0.00 0.00 0.00 0.00 0.02 0.01 0.01 0.01 0.01 0.00 0.00 0.00 0.00 0.00 0.00 0.00 0.00 0.00
0.05 0.04 0.04 0.03 0.02 0.02 0.02 0.02 0.02 0.02 0.01 0.01 0.01 0.01 0.01 0.00 0.00 0.01 0.01 0.00 0.00 0.00 0.00 0.00 0.00 0.00 0.00 0.00 0.00 0.00 0.01 0.01 0.01 0.01 0.01 0.00 0.00 0.00 0.00 0.00 0.00 0.00 0.00 0.00
0.04 0.04 0.05 0.04 0.04 0.06 0.03 0.01 0.01 0.02 0.02 0.01 0.01 0.01 0.00 0.00 0.01 0.01 0.01 0.01 0.01 0.01 0.01 0.00 0.00 0.00 0.00 0.00 0.00 0.00 0.00 0.00 0.00 0.00 0.00 0.00 0.00 0.00 0.00 0.00 0.00 0.00 0.00 0.00
0.03 0.04 0.06 0.06 0.05 0.04 0.02 0.01 0.01 0.01 0.01 0.01 0.01 0.01 0.00 0.01 0.01 0.01 0.00 0.00 0.00 0.00 0.00 0.00 0.00 0.00 0.00 0.00 0.00 0.00 0.00 0.00 0.00 0.00 0.00 0.00 0.00 0.00 0.00 0.00 0.00 0.00 0.00 0.00
0.03 0.05 0.06 0.06 0.06 0.05 0.02 0.01 0.01 0.01 0.02 0.01 0.01 0.01 0.00 0.01 0.01 0.01 0.00 0.00 0.00 0.00 0.00 0.00 0.00 0.00 0.00 0.00 0.00 0.00 0.00 0.00 0.00 0.00 0.00 0.00 0.00 0.00 0.00 0.00 0.00 0.00 0.00 0.00
0.05 0.07 0.06 0.05 0.05 0.04 0.01 0.00 0.01 0.02 0.02 0.01 0.00 0.00 0.00 0.00 0.00 0.00 0.00 0.00 0.00 0.00 0.00 0.00 0.00 0.00 0.00 0.00 0.00 0.00 0.00 0.00 0.00 0.00 0.00 0.00 0.00 0.00 0.00 0.00 0.00 0.00 0.00 0.00
0.05 0.06 0.05 0.05 0.06 0.04 0.01 0.01 0.01 0.02 0.01 0.00 0.00 0.00 0.00 0.00 0.00 0.00 0.00 0.00 0.00 0.00 0.00 0.00 0.00 0.00 0.00 0.00 0.00 0.00 0.00 0.00 0.00 0.00 0.00 0.00 0.00 0.00 0.00 0.00 0.00 0.00 0.00 0.01
0.05 0.06 0.05 0.05 0.05 0.03 0.01 0.01 0.01 0.01 0.01 0.00 0.00 0.01 0.01 0.01 0.00 0.00 0.00 0.00 0.00 0.00 0.00 0.00 0.00 0.00 0.00 0.00 0.00 0.00 0.00 0.00 0.00 0.00 0.00 0.00 0.00 0.00 0.01 0.00 0.00 0.00 0.01 0.01
0.04 0.04 0.04 0.04 0.03 0.02 0.01 0.01 0.01 0.00 0.00 0.00 0.00 0.00 0.00 0.01 0.01 0.00 0.00 0.00 0.00 0.00 0.00 0.00 0.00 0.00 0.00 0.00 0.00 0.00 0.00 0.00 0.00 0.00 0.00 0.00 0.00 0.01 0.01 0.01 0.01 0.01 0.01 0.01
0.03 0.04 0.04 0.04 0.03 0.02 0.01 0.01 0.01 0.01 0.01 0.01 0.00 0.00 0.00 0.00 0.00 0.00 0.00 0.00 0.00 0.00 0.00 0.00 0.00 0.00 0.00 0.00 0.00 0.00 0.00 0.00 0.00 0.00 0.00 0.00 0.00 0.01 0.01 0.01 0.01 0.01 0.01 0.01
0.03 0.04 0.04 0.04 0.03 0.03 0.02 0.01 0.01 0.01 0.01 0.01 0.00 0.00 0.00 0.00 0.00 0.00 0.00 0.00 0.00 0.00 0.00 0.00 0.00 0.00 0.00 0.00 0.00 0.00 0.00 0.00 0.00 0.00 0.00 0.00 0.01 0.01 0.01 0.01 0.01 0.01 0.01 0.01
MSLP
1010.53 1010.78 1011.04 1011.31 1011.61 1011.95 1012.36 1012.82 1013.33 1013.87 1014.41 1014.90 1015.34 1015.69 1015.94 1016.10 1016.19 1016.24 1016.29 1016.36 1016.48 1016.66 1016.90 1017.19 1017.51 1017.83 1018.12 1018.37 1018.55 1018.66 1018.69 1018.64 1018.54 1018.37 1018.15 1017.89 1017.58 1017.23 1016.84 1016.42 1015.99 1015.54 1015.09 1014.66
1010.75 1010.95 1011.15 1011.35 1011.59 1011.88 1012.23 1012.67 1013.17 1013.72 1014.27 1014.80 1015.27 1015.64 1015.92 1016.09 1016.18 1016.22 1016.25 1016.31 1016.41 1016.58 1016.83 1017.14 1017.49 1017.85 1018.19 1018.49 1018.73 1018.88 1018.95 1018.93 1018.83 1018.66 1018.42 1018.13 1017.78 1017.38 1016.95 1016.48 1016.00 1015.51 1015.03 1014.56
1011.01 1011.19 1011.36 1011.52 1011.70 1011.94 1012.25 1012.65 1013.11 1013.63 1014.17 1014.69 1015.16 1015.54 1015.82 1016.00 1016.10 1016.14 1016.18 1016.24 1016.35 1016.53 1016.79 1017.12 1017.50 1017.89 1018.27 1018.62 1018.89 1019.08 1019.18 1019.18 1019.08 1018.91 1018.65 1018.33 1017.94 1017.51 1017.03 1016.53 1016.01 1015.48 1014.96 1014.46
1011.31 1011.50 1011.66 1011.81 1011.98 1012.19 1012.46 1012.80 1013.21 1013.67 1014.15 1014.61 1015.03 1015.37 1015.63 1015.81 1015.92 1015.98 1016.05 1016.13 1016.28 1016.49 1016.78 1017.13 1017.53 1017.95 1018.35 1018.72 1019.01 1019.22 1019.33 1019.34 1019.25 1019.07 1018.80 1018.46 1018.05 1017.59 1017.08 1016.55 1016.00 1015.45 1014.89 1014.35
1011.61 1011.85 1012.05 1012.23 1012.41 1012.61 1012.85 1013.14 1013.47 1013.84 1014.21 1014.57 1014.89 1015.16 1015.37 1015.52 1015.64 1015.74 1015.85 1016.00 1016.20 1016.47 1016.80 1017.19 1017.60 1018.03 1018.43 1018.79 1019.09 1019.29 1019.40 1019.41 1019.32 1019.14 1018.87 1018.52 1018.10 1017.62 1017.11 1016.56 1015.99 1015.41 1014.83 1014.25
1011.88 1012.20 1012.47 1012.71 1012.93 1013.15 1013.38 1013.62 1013.86 1014.11 1014.34 1014.55 1014.74 1014.90 1015.03 1015.15 1015.27 1015.41 1015.59 1015.82 1016.11 1016.46 1016.85 1017.27 1017.71 1018.13 1018.52 1018.86 1019.12 1019.31 1019.40 1019.40 1019.31 1019.13 1018.86 1018.52 1018.11 1017.64 1017.12 1016.56 1015.98 1015.38 1014.77 1014.14
1012.08 1012.48 1012.85 1013.18 1013.48 1013.74 1013.97 1014.17 1014.32 1014.44 1014.51 1014.56 1014.58 1014.60 1014.64 1014.71 1014.84 1015.03 1015.30 1015.63 1016.03 1016.47 1016.94 1017.41 1017.86 1018.27 1018.63 1018.93 1019.15 1019.30 1019.37 1019.35 1019.26 1019.09 1018.84 1018.51 1018.11 1017.66 1017.14 1016.58 1015.98 1015.36 1014.70 1014.03
1012.16 1012.67 1013.14 1013.57 1013.96 1014.29 1014.54 1014.70 1014.78 1014.76 1014.68 1014.55 1014.41 1014.29 1014.22 1014.25 1014.39 1014.64 1015.00 1015.45 1015.96 1016.51 1017.06 1017.58 1018.04 1018.45 1018.77 1019.02 1019.20 1019.30 1019.34 1019.31 1019.22 1019.06 1018.83 1018.53 1018.15 1017.71 1017.20 1016.63 1016.00 1015.34 1014.63 1013.90
1012.14 1012.73 1013.30 1013.85 1014.33 1014.72 1015.01 1015.15 1015.16 1015.03 1014.81 1014.52 1014.22 1013.97 1013.82 1013.80 1013.95 1014.27 1014.72 1015.29 1015.93 1016.58 1017.21 1017.78 1018.27 1018.65 1018.94 1019.15 1019.28 1019.34 1019.36 1019.32 1019.23 1019.09 1018.88 1018.60 1018.25 1017.80 1017.28 1016.69 1016.03 1015.31 1014.55 1013.75
1012.02 1012.69 1013.35 1013.99 1014.56 1015.02 1015.34 1015.48 1015.43 1015.21 1014.87 1014.44 1014.02 1013.66 1013.43 1013.40 1013.57 1013.94 1014.49 1015.17 1015.92 1016.68 1017.39 1018.00 1018.50 1018.88 1019.14 1019.31 1019.40 1019.44 1019.43 1019.40 1019.32 1019.19 1019.01 1018.74 1018.39 1017.94 1017.39 1016.76 1016.04 1015.27 1014.44 1013.57
1011.86 1012.58 1013.31 1014.02 1014.66 1015.17 1015.52 1015.65 1015.56 1015.28 1014.84 1014.32 1013.80 1013.36 1013.09 1013.05 1013.25 1013.68 1014.32 1015.10 1015.94 1016.78 1017.55 1018.21 1018.72 1019.09 1019.34 1019.48 1019.55 1019.58 1019.57 1019.54 1019.48 1019.36 1019.19 1018.93 1018.56 1018.08 1017.49 1016.80 1016.03 1015.18 1014.29 1013.37
1011.73 1012.48 1013.25 1014.00 1014.67 1015.21 1015.56 1015.68 1015.56 1015.22 1014.72 1014.13 1013.55 1013.08 1012.79 1012.76 1012.99 1013.49 1014.20 1015.05 1015.97 1016.87 1017.69 1018.37 1018.90 1019.27 1019.51 1019.65 1019.72 1019.74 1019.74 1019.73 1019.68 1019.58 1019.40 1019.12 1018.73 1018.21 1017.56 1016.81 1015.97 1015.06 1014.12 1013.16
1011.67 1012.43 1013.21 1013.96 1014.64 1015.17 1015.49 1015.58 1015.42 1015.04 1014.50 1013.87 1013.27 1012.79 1012.52 1012.51 1012.79 1013.34 1014.11 1015.02 1015.99 1016.94 1017.79 1018.49 1019.03 1019.41 1019.66 1019.80 1019.88 1019.92 1019.94 1019.94 1019.90 1019.80 1019.61 1019.30 1018.87 1018.29 1017.58 1016.76 1015.86 1014.90 1013.93 1012.96
1011.70 1012.45 1013.21 1013.93 1014.57 1015.05 1015.33 1015.37 1015.16 1014.74 1014.17 1013.54 1012.95 1012.50 1012.26 1012.31 1012.64 1013.25 1014.07 1015.02 1016.03 1016.99 1017.86 1018.57 1019.12 1019.52 1019.78 1019.94 1020.04 1020.11 1020.15 1020.16 1020.12 1020.01 1019.79 1019.45 1018.96 1018.32 1017.55 1016.67 1015.72 1014.74 1013.76 1012.81
1011.79 1012.51 1013.22 1013.89 1014.45 1014.85 1015.05 1015.02 1014.76 1014.32 1013.74 1013.13 1012.58 1012.19 1012.02 1012.14 1012.54 1013.21 1014.07 1015.06 1016.09 1017.07 1017.93 1018.65 1019.21 1019.61 1019.89 1020.08 1020.21 1020.30 1020.35 1020.37 1020.33 1020.19 1019.94 1019.54 1019.00 1018.30 1017.48 1016.56 1015.59 1014.61 1013.65 1012.74
1011.88 1012.55 1013.20 1013.78 1014.24 1014.55 1014.65 1014.55 1014.24 1013.77 1013.21 1012.65 1012.17 1011.87 1011.80 1012.02 1012.51 1013.24 1014.15 1015.17 1016.21 1017.19 1018.06 1018.77 1019.33 1019.74 1020.04 1020.24 1020.39 1020.50 1020.56 1020.57 1020.51 1020.34 1020.04 1019.60 1019.00 1018.26 1017.40 1016.47 1015.50 1014.54 1013.63 1012.78
1011.88 1012.49 1013.05 1013.53 1013.89 1014.08 1014.10 1013.92 1013.57 1013.11 1012.60 1012.11 1011.75 1011.57 1011.63 1011.97 1012.56 1013.37 1014.34 1015.38 1016.43 1017.40 1018.26 1018.97 1019.52 1019.94 1020.24 1020.46 1020.61 1020.72 1020.77 1020.77 1020.67 1020.46 1020.12 1019.62 1018.98 1018.21 1017.34 1016.41 1015.48 1014.57 1013.72 1012.96
1011.69 1012.23 1012.71 1013.08 1013.33 1013.43 1013.36 1013.14 1012.78 1012.36 1011.92 1011.56 1011.34 1011.32 1011.54 1012.02 1012.73 1013.63 1014.65 1015.72 1016.77 1017.74 1018.58 1019.27 1019.81 1020.21 1020.51 1020.72 1020.87 1020.96 1020.99 1020.95 1020.81 1020.55 1020.16 1019.63 1018.96 1018.18 1017.32 1016.43 1015.54 1014.70 1013.94 1013.26
1011.27 1011.73 1012.12 1012.40 1012.56 1012.58 1012.47 1012.23 1011.91 1011.56 1011.25 1011.03 1010.99 1011.15 1011.55 1012.18 1013.02 1014.01 1015.09 1016.18 1017.23 1018.19 1019.00 1019.66 1020.18 1020.56 1020.84 1021.03 1021.15 1021.21 1021.20 1021.11 1020.92 1020.62 1020.18 1019.62 1018.94 1018.17 1017.35 1016.51 1015.70 1014.94 1014.27 1013.68
1010.61 1010.99 1011.30 1011.51 1011.61 1011.59 1011.47 1011.26 1011.01 1010.78 1010.62 1010.59 1010.74 1011.10 1011.68 1012.47 1013.42 1014.50 1015.62 1016.74 1017.78 1018.71 1019.50 1020.13 1020.61 1020.96 1021.20 1021.36 1021.44 1021.46 1021.40 1021.25 1021.01 1020.65 1020.19 1019.61 1018.94 1018.20 1017.43 1016.66 1015.93 1015.26 1014.68 1014.16
1009.78 1010.08 1010.33 1010.50 1010.57 1010.55 1010.45 1010.31 1010.18 1010.09 1010.11 1010.27 1010.62 1011.17 1011.93 1012.86 1013.92 1015.06 1016.22 1017.34 1018.37 1019.27 1020.02 1020.61 1021.05 1021.37 1021.57 1021.69 1021.72 1021.68 1021.56 1021.36 1021.06 1020.67 1020.18 1019.60 1018.95 1018.25 1017.54 1016.86 1016.21 1015.64 1015.13 1014.68
1008.89 1009.14 1009.34 1009.48 1009.55 1009.56 1009.53 1009.49 1009.49 1009.56 1009.76 1010.12 1010.66 1011.39 1012.28 1013.33 1014.47 1015.66 1016.83 1017.94 1018.94 1019.80 1020.51 1021.07 1021.47 1021.75 1021.92 1021.99 1021.98 1021.89 1021.71 1021.45 1021.11 1020.68 1020.17 1019.59 1018.97 1018.33 1017.69 1017.09 1016.53 1016.03 1015.59 1015.21
1008.09 1008.29 1008.46 1008.60 1008.69 1008.75 1008.81 1008.88 1009.02 1009.26 1009.63 1010.16 1010.86 1011.72 1012.73 1013.85 1015.04 1016.24 1017.41 1018.49 1019.45 1020.28 1020.95 1021.47 1021.85 1022.10 1022.24 1022.27 1022.22 1022.08 1021.85 1021.54 1021.16 1020.70 1020.18 1019.61 1019.03 1018.44 1017.87 1017.34 1016.86 1016.44 1016.06 1015.72
1007.51 1007.68 1007.84 1007.98 1008.11 1008.23 1008.37 1008.56 1008.83 1009.21 1009.72 1010.39 1011.21 1012.17 1013.25 1014.41 1015.61 1016.79 1017.92 1018.97 1019.89 1020.68 1021.32 1021.82 1022.18 1022.41 1022.53 1022.55 1022.46 1022.28 1022.02 1021.67 1021.24 1020.76 1020.23 1019.68 1019.12 1018.58 1018.08 1017.62 1017.21 1016.84 1016.51 1016.20
1007.28 1007.42 1007.57 1007.72 1007.88 1008.06 1008.27 1008.55 1008.93 1009.42 1010.04 1010.81 1011.71 1012.72 1013.82 1014.99 1016.16 1017.31 1018.40 1019.39 1020.28 1021.03 1021.65 1022.13 1022.48 1022.71 1022.83 1022.83 1022.72 1022.52 1022.22 1021.84 1021.38 1020.88 1020.35 1019.81 1019.28 1018.78 1018.32 1017.92 1017.57 1017.25 1016.96 1016.67
1007.44 1007.56 1007.70 1007.86 1008.03 1008.24 1008.51 1008.86 1009.31 1009.88 1010.57 1011.39 1012.33 1013.36 1014.46 1015.60 1016.73 1017.83 1018.86 1019.80 1020.64 1021.37 1021.97 1022.44 1022.80 1023.03 1023.14 1023.14 1023.02 1022.80 1022.47 1022.07 1021.59 1021.07 1020.53 1019.99 1019.48 1019.02 1018.61 1018.25 1017.94 1017.66 1017.40 1017.14
Thickness
5568 5567 5573 5586 5592 5599 5605 5606 5610 5619 5621 5620 5618 5624 5634 5642 5644 5645 5647 5649 5650 5651 5652 5651 5649 5647 5644 5641 5638 5635 5632 5631 5629 5627 5625 5623 5622 5622 5622 5621 5621 5620 5619 5618
5555 5561 5580 5586 5588 5589 5593 5593 5598 5605 5609 5609 5611 5618 5629 5638 5641 5644 5644 5645 5647 5647 5646 5645 5643 5641 5638 5636 5633 5630 5627 5625 5623 5621 5620 5618 5617 5616 5615 5615 5613 5612 5611 5610
5552 5567 5575 5576 5578 5579 5583 5585 5590 5593 5596 5598 5598 5604 5622 5637 5642 5643 5644 5645 5645 5644 5641 5640 5638 5635 5632 5629 5627 5626 5622 5620 5618 5616 5613 5612 5610 5608 5607 5606 5606 5605 5604 5602
5547 5560 5563 5564 5568 5572 5570 5583 5586 5584 5576 5576 5588 5580 5618 5631 5634 5637 5639 5639 5640 5640 5638 5635 5632 5629 5626 5623 5621 5619 5617 5614 5612 5610 5607 5605 5602 5601 5600 5599 5598 5598 5596 5594
5539 5550 5551 5554 5562 5566 5566 5574 5575 5574 5569 5566 5577 5570 5599 5622 5624 5630 5633 5634 5634 5634 5633 5630 5627 5624 5621 5617 5614 5612 5610 5608 5606 5604 5601 5599 5596 5595 5594 5593 5591 5589 5588 5586
5528 5539 5543 5548 5554 5558 5556 5558 5559 5560 5554 5545 5570 5568 5587 5610 5622 5628 5629 5628 5628 5627 5626 5624 5621 5617 5613 5609 5606 5604 5602 5601 5599 5597 5595 5593 5590 5589 5587 5585 5583 5581 5579 5577
5513 5522 5531 5537 5537 5542 5543 5536 5529 5528 5527 5542 5577 5572 5585 5611 5622 5623 5622 5621 5620 5619 5617 5614 5611 5608 5605 5601 5598 5597 5595 5593 5592 5590 5588 5586 5584 5582 5580 5577 5575 5572 5570 5567
5499 5507 5519 5524 5530 5529 5531 5534 5531 5530 5537 5554 5567 5566 5587 5606 5612 5614 5614 5612 5611 5609 5607 5606 5603 5600 5597 5594 5591 5589 5588 5586 5585 5583 5581 5579 5577 5574 5572 5569 5566 5564 5561 5559
5496 5502 5516 5519 5525 5527 5522 5525 5540 5536 5541 5543 5555 5573 5584 5595 5597 5600 5601 5601 5599 5598 5597 5595 5594 5592 5589 5586 5584 5582 5580 5578 5577 5576 5573 5571 5569 5566 5563 5561 5558 5555 5552 5550
5484 5484 5497 5503 5508 5512 5519 5527 5522 5520 5527 5540 5557 5567 5569 5577 5583 5588 5589 5588 5588 5588 5586 5585 5584 5582 5580 5578 5575 5573 5572 5570 5569 5567 5565 5563 5560 5557 5554 5551 5548 5545 5543 5540
5472 5467 5478 5485 5490 5499 5504 5510 5516 5519 5528 5535 5543 5553 5571 5573 5577 5577 5578 5579 5578 5576 5575 5574 5573 5572 5571 5569 5566 5564 5562 5560 5558 5557 5556 5553 5550 5548 5545 5541 5539 5536 5533 5530
5461 5460 5462 5474 5484 5489 5497 5506 5507 5508 5516 5527 5534 5538 5560 5562 5565 5566 5566 5568 5568 5567 5565 5563 5562 5561 5560 5558 5557 5554 5553 5551 5549 5547 5546 5543 5540 5537 5534 5531 5528 5525 5522 5519
5448 5446 5450 5458 5463 5469 5476 5488 5496 5500 5508 5517 5524 5530 5548 5549 5552 5555 5554 5555 5555 5555 5554 5552 5551 5550 5549 5548 5546 5545 5543 5541 5540 5536 5534 5532 5529 5526 5523 5521 5518 5515 5512 5509
5442 5436 5444 5456 5467 5461 5463 5473 5481 5486 5493 5507 5521 5524 5533 5536 5538 5540 5542 5542 5541 5542 5541 5540 5539 5539 5538 5538 5537 5535 5533 5531 5529 5526 5523 5521 5518 5516 5513 5510 5507 5504 5501 5498
5429 5429 5438 5450 5462 5464 5466 5468 5473 5476 5491 5499 5517 5518 5523 5525 5526 5528 5529 5530 5529 5529 5529 5530 5529 5528 5527 5527 5526 5525 5523 5520 5518 5515 5512 5510 5507 5504 5501 5498 5495 5492 5490 5487
5415 5420 5429 5440 5456 5459 5461 5467 5470 5475 5484 5494 5502 5505 5513 5516 5516 5516 5516 5517 5516 5516 5517 5518 5519 5518 5517 5516 5516 5514 5511 5509 5507 5504 5501 5498 5496 5492 5489 5486 5484 5481 5479 5476
5404 5409 5418 5429 5445 5447 5447 5462 5466 5471 5480 5486 5488 5495 5500 5501 5502 5501 5502 5504 5505 5506 5506 5506 5506 5505 5505 5504 5504 5501 5499 5498 5495 5492 5489 5486 5484 5480 5477 5476 5473 5470 5467 5465
5394 5402 5409 5418 5425 5427 5450 5466 5471 5469 5471 5476 5480 5484 5489 5489 5489 5490 5491 5490 5491 5493 5494 5493 5492 5492 5492 5492 5491 5489 5487 5485 5482 5479 5477 5474 5471 5469 5467 5464 5462 5459 5457 5455
5396 5397 5402 5408 5416 5432 5444 5454 5455 5455 5453 5464 5468 5472 5475 5477 5476 5476 5479 5480 5480 5481 5482 5481 5480 5480 5479 5478 5478 5476 5473 5471 5469 5466 5464 5462 5460 5458 5456 5453 5451 5449 5447 5445
5390 5390 5394 5403 5413 5423 5432 5442 5448 5449 5441 5454 5457 5460 5462 5464 5458 5461 5467 5469 5469 5469 5470 5469 5468 5467 5466 5465 5464 5462 5460 5458 5456 5454 5452 5451 5449 5447 5445 5443 5441 5439 5437 5435
5381 5384 5388 5395 5404 5412 5421 5430 5439 5430 5431 5443 5447 5448 5449 5447 5448 5451 5455 5455 5455 5456 5456 5456 5455 5453 5452 5452 5451 5448 5446 5445 5444 5443 5441 5440 5438 5436 5434 5432 5431 5428 5427 5425
5379 5382 5387 5393 5397 5401 5410 5416 5415 5418 5427 5432 5434 5435 5435 5436 5439 5440 5441 5441 5442 5441 5442 5443 5441 5439 5439 5439 5438 5435 5433 5432 5432 5431 5429 5428 5427 5426 5425 5422 5420 5418 5416 5415
5378 5378 5383 5386 5389 5396 5400 5402 5407 5412 5414 5419 5420 5423 5423 5424 5424 5426 5426 5427 5428 5428 5428 5428 5427 5426 5425 5425 5424 5422 5420 5420 5420 5419 5418 5417 5416 5415 5413 5411 5409 5408 5406 5404
5369 5374 5377 5379 5383 5387 5391 5394 5398 5401 5403 5407 5409 5411 5413 5412 5412 5412 5413 5412 5413 5413 5414 5414 5414 5412 5411 5410 5410 5409 5408 5408 5407 5406 5405 5405 5404 5403 5401 5400 5399 5397 5395 5393
5358 5361 5363 5366 5369 5376 5380 5381 5384 5389 5393 5396 5398 5400 5400 5401 5400 5400 5400 5399 5400 5400 5400 5401 5400 5398 5397 5397 5397 5397 5396 5395 5394 5393 5393 5393 5393 5391 5390 5389 5387 5386 5385 5383
5348 5348 5352 5357 5359 5362 5366 5370 5374 5377 5379 5382 5384 5386 5387 5388 5388 5388 5387 5387 5387 5387 5387 5387 5386 5386 5385 5384 5384 5384 5384 5383 5382 5382 5381 5381 5380 5379 5378 5377 5376 5376 5376 5376